Weather History for KMHK - February, 2014

Change the Weather History Date:

Wednesday, February 19, 2014

  Actual Average Record
Temperature  
Mean Temperature 42 °F 34 °F  
Max Temperature 57 °F 46 °F 64 °F (2004)
Min Temperature 26 °F 22 °F 9 °F (2015)
Degree Days  
Heating Degree Days 23 31  
Month to date heating degree days 785 630  
Since 1 July heating degree days 4236 3896  
Cooling Degree Days 0 0  
Month to date cooling degree days 0 0  
Year to date cooling degree days 0 0  
Moisture  
Dew Point 29 °F    
Average Humidity 61    
Maximum Humidity 92    
Minimum Humidity 30    
Precipitation  
Precipitation 0.00 in 0.04 in 0.37 in (2002)
Month to date precipitation 0.14 0.70  
Year to date precipitation 0.45 1.35  
Sea Level Pressure  
Sea Level Pressure 29.83 in    
Wind  
Wind Speed 6 mph (East)    
Max Wind Speed 16 mph    
Max Gust Speed 23 mph    
Visibility 10 miles    
Events      
T = Trace of Precipitation, MM = Missing Value Source: NWS Daily Summary

Daily Weather History Graph

Daily Weather History Graph

Search for Another Location

Airport or City:

Trip Planner

Search our weather history database for the weather conditions in past years. The results will help you decide how hot, cold, wet, or windy it might be!

Date:

Astronomy

Feb. 19, 2014 Rise Set
Actual Time 7:13 AM CST 6:08 PM CST
Civil Twilight 6:45 AM CST 6:35 PM CST
Nautical Twilight 6:14 AM CST 7:06 PM CST
Astronomical Twilight 5:43 AM CST 7:37 PM CST
Moon 11:00 PM CST (2/19) 9:22 AM CST (2/19)
Length of Visible Light 11h 49m
Length of Day
10h 55m
Waning Gibbous, 79% of the Moon is Illuminated
Feb 19
Waning Gibbous
Feb 22
Last Quarter
Mar 1
New
Mar 8
First Quarter
Mar 16
Full

Hourly Weather History & Observations

Time (CST) Temp. Windchill Dew Point Humidity Pressure Visibility Wind Dir Wind Speed Gust Speed Precip Events Conditions
12:52 AM 34.0 °F 28.0 °F 28.9 °F 82% 30.01 in 10.0 mi West 6.9 mph - N/A   Clear
1:52 AM 33.1 °F 30.0 °F 28.0 °F 82% 30.01 in 10.0 mi SW 3.5 mph - N/A   Clear
2:52 AM 30.9 °F - 26.1 °F 82% 30.01 in 10.0 mi Calm Calm - N/A   Clear
3:52 AM 28.9 °F 25.2 °F 26.1 °F 89% 29.98 in 10.0 mi NE 3.5 mph - N/A   Clear
4:52 AM 28.0 °F - 26.1 °F 92% 29.99 in 10.0 mi Calm Calm - N/A   Clear
5:52 AM 28.9 °F - 26.1 °F 89% 30.01 in 10.0 mi Calm Calm - N/A   Clear
6:52 AM 27.0 °F - 25.0 °F 92% 29.99 in 10.0 mi Calm Calm - N/A   Clear
7:52 AM 28.9 °F 23.9 °F 27.0 °F 92% 30.01 in 10.0 mi SW 4.6 mph - N/A   Clear
8:52 AM 32.0 °F - 28.0 °F 85% 30.01 in 10.0 mi Calm Calm - N/A   Clear
9:52 AM 37.0 °F - 30.9 °F 79% 29.99 in 10.0 mi Calm Calm - N/A   Clear
10:52 AM 45.0 °F 43.5 °F 30.9 °F 58% 29.96 in 10.0 mi NE 3.5 mph - N/A   Clear
11:52 AM 54.0 °F - 27.0 °F 35% 29.91 in 10.0 mi SSE 10.4 mph - N/A   Clear
12:52 PM 55.0 °F - 24.1 °F 30% 29.86 in 10.0 mi SE 10.4 mph - N/A   Partly Cloudy
1:52 PM 55.9 °F - 27.0 °F 33% 29.81 in 10.0 mi SE 10.4 mph - N/A   Mostly Cloudy
2:52 PM 54.0 °F - 28.0 °F 37% 29.79 in 10.0 mi ESE 8.1 mph - N/A   Overcast
3:52 PM 54.0 °F - 27.0 °F 35% 29.75 in 10.0 mi ESE 10.4 mph - N/A   Overcast
4:52 PM 52.0 °F - 28.9 °F 41% 29.70 in 10.0 mi ESE 10.4 mph - N/A   Overcast
5:52 PM 51.1 °F - 28.0 °F 41% 29.69 in 10.0 mi ESE 12.7 mph - N/A   Overcast
6:52 PM 48.0 °F - 30.0 °F 50% 29.68 in 10.0 mi East 6.9 mph - N/A   Overcast
7:52 PM 46.9 °F - 32.0 °F 56% 29.66 in 10.0 mi East 8.1 mph - N/A   Overcast
8:52 PM 46.9 °F - 33.1 °F 59% 29.62 in 10.0 mi East 8.1 mph - N/A   Overcast
9:52 PM 46.0 °F 41.4 °F 34.0 °F 63% 29.58 in 10.0 mi East 9.2 mph - N/A   Overcast
10:52 PM 46.0 °F 42.5 °F 35.1 °F 66% 29.55 in 10.0 mi ENE 6.9 mph - N/A   Overcast
11:02 PM 45.0 °F 41.8 °F 35.1 °F 68% 29.54 in 10.0 mi NE 5.8 mph - N/A   Overcast
11:52 PM 44.1 °F 39.5 °F 36.0 °F 73% 29.52 in 10.0 mi East 8.1 mph - N/A   Overcast